Tracking 28081 objects as of 27-Sep-2023
HD Live streaming from Space Station
objects crossing your sky now

NOAA 17 DEB

Track NOAA 17 DEB now!
10-day predictions


NORAD ID: 48163
Int'l Code: 2002-032D
Perigee: 650.9 km
Apogee: 739.1 km
Inclination: 98.6 °
Period: 98.5 minutes
Semi major axis: 7066 km
RCS: Unknown
Launch date: June 24, 2002
Source: United States (US)
Launch site: AIR FORCE WESTERN TEST RANGE (AFWTR)

Note: This is SATELLITE DEBRIS
Your satellite tracking list
Your tracking list is empty




NASA's NSSDC Master Catalog

Two Line Element Set (TLE):
1 48163U 02032D   23269.72441467  .00056401  00000-0  10951-1 0  9999
2 48163  98.5838 236.0550 0062409 147.2567 213.2525 14.61645788130227
Source of the keplerian elements: AFSPC